Location: Newark
(34.9500°N, 139.9667°E)
Time: 10:55:49
(UTC+00:00)

Altair - Pass Details

Date: 11 December 2019
Orbit: 1502 x 1682 km, 47.2° (Epoch: 21 January)

Event Time Altitude Azimuth Distance (km) Brightness Sun altitude
Rises 10:30:13 0° 223° (SW) 4,835 10.7 -36.3°
Reaches altitude 10° 10:33:23 10° 221° (SW) 3,828 10.0 -37.0°
Enters shadow 10:41:21 61° 193° (SSW) 1,750 7.6 -38.6°
